Tacoma Narrows, WA
on Thursday, February 21, 2013

Thursday
Previous Day Next Day
Daily Summary
 ActualAverageRecord
Temperature
Mean Temperature °F °F  
Max Temperature 43°F 47°F 57°F (2002)
Min Temperature 39°F 36°F 30°F (2005)
Degree Days
Heating Degree Days 24    
Moisture
Dew Point 38°F   
Average Humidity 86    
Maximum Humidity 93    
Minimum Humidity 81    
Precipitation
Precipitation 0.06 in in in ()
Wind
Wind Speed 10 mph   
Max Wind Speed 22 mph   
Max Gust Speed 31 mph   
Visibility 10 miles   
Events Rain   
Averages and records for this station are not official NWS values.
Key: T is trace of precipitation, MM is missing value
Source: NWS Daily Summary
Seasonal Weather Averages
Time(PST)TemperatureDew PointHumidity Pressure Visibility Wind DirectionWind SpeedGust SpeedPrecipitationEvents Conditions
12:49 AM 41.0°F 37.4°F 87% 30.02 in 9.0 miles Calm Calm - N/A   Overcast
12:53 AM 41.0°F 37.9°F 89% 30.04 in 9.0 miles SSW 3.5 mph - N/A   Overcast
1:53 AM 39.9°F 37.0°F 89% 30.05 in 10.0 miles SSW 6.9 mph - 0.02 in   Overcast
2:17 AM 39.2°F 37.4°F 93% 30.04 in 10.0 miles SSW 6.9 mph - 0.00 in   Overcast
2:53 AM 39.9°F 37.0°F 89% 30.05 in 9.0 miles South 10.4 mph - 0.00 in   Overcast
3:53 AM 39.9°F 37.9°F 93% 30.04 in 10.0 miles SSW 10.4 mph - N/A   Overcast
4:46 AM 39.2°F 37.4°F 93% 30.04 in 10.0 miles SSW 10.4 mph 19.6 mph N/A   Overcast
4:53 AM 39.9°F 37.0°F 89% 30.05 in 10.0 miles SSW 15.0 mph 21.9 mph N/A   Overcast
5:27 AM 39.2°F 37.4°F 93% 30.04 in 10.0 miles South 17.3 mph 25.3 mph N/A   Overcast
5:40 AM 39.2°F 37.4°F 93% 30.05 in 10.0 miles SSW 12.7 mph 19.6 mph N/A   Overcast
5:53 AM 41.0°F 37.0°F 86% 30.06 in 10.0 miles South 16.1 mph 21.9 mph N/A   Overcast
6:24 AM 39.2°F 37.4°F 93% 30.05 in 10.0 miles South 11.5 mph 23.0 mph N/A   Overcast
6:34 AM 41.0°F 37.4°F 87% 30.06 in 10.0 miles SSW 13.8 mph 21.9 mph N/A   Overcast
6:53 AM 41.0°F 37.0°F 86% 30.06 in 10.0 miles South 13.8 mph - N/A   Overcast
7:49 AM 41.0°F 35.6°F 81% 30.07 in 10.0 miles South 15.0 mph - N/A   Overcast
7:53 AM 41.0°F 36.0°F 82% 30.08 in 10.0 miles South 13.8 mph - N/A   Overcast
8:53 AM 41.0°F 36.0°F 82% 30.09 in 10.0 miles SSW 11.5 mph 19.6 mph N/A   Overcast
9:53 AM 39.9°F 36.0°F 86% 30.09 in 10.0 miles South 13.8 mph - 0.01 in   Overcast
10:03 AM 39.2°F 35.6°F 87% 30.08 in 10.0 miles South 16.1 mph 25.3 mph N/A   Overcast
10:53 AM 39.9°F 36.0°F 86% 30.08 in 10.0 miles South 17.3 mph 25.3 mph 0.01 in Rain Light Rain
11:53 AM 41.0°F 37.0°F 86% 30.08 in 10.0 miles South 13.8 mph 21.9 mph 0.00 in   Mostly Cloudy
12:53 PM 42.1°F 37.0°F 82% 30.06 in 10.0 miles South 10.4 mph - N/A   Overcast
1:53 PM 42.1°F 37.0°F 82% 30.05 in 10.0 miles SSW 11.5 mph - 0.01 in Rain Light Rain
2:29 PM 41.0°F 37.4°F 87% 30.03 in 5.0 miles SSW 10.4 mph 20.7 mph 0.01 in Rain Light Rain
2:36 PM 42.8°F 37.4°F 81% 30.02 in 8.0 miles South 17.3 mph 21.9 mph 0.01 in Rain Light Rain
2:53 PM 42.1°F 37.9°F 85% 30.04 in 5.0 miles South 16.1 mph 24.2 mph 0.01 in   Overcast
3:53 PM 43.0°F 37.9°F 82% 30.04 in 10.0 miles South 21.9 mph 31.1 mph N/A   Mostly Cloudy
4:53 PM 42.1°F 37.9°F 85% 30.04 in 10.0 miles South 16.1 mph 26.5 mph N/A   Mostly Cloudy
5:53 PM 42.1°F 39.0°F 89% 30.06 in 10.0 miles South 15.0 mph - N/A   Overcast
5:56 PM 42.8°F 39.2°F 87% 30.05 in 10.0 miles South 13.8 mph - N/A   Mostly Cloudy
6:53 PM 43.0°F 39.0°F 86% 30.06 in 10.0 miles South 13.8 mph 23.0 mph N/A   Mostly Cloudy
7:53 PM 43.0°F 37.9°F 82% 30.06 in 10.0 miles SSW 13.8 mph 20.7 mph N/A   Mostly Cloudy
8:00 PM 42.8°F 37.4°F 81% 30.05 in 10.0 miles South 16.1 mph 20.7 mph N/A   Mostly Cloudy
8:07 PM 42.8°F 37.4°F 81% 30.06 in 10.0 miles South 12.7 mph 20.7 mph N/A   Mostly Cloudy
8:50 PM 42.8°F 39.2°F 87% 30.07 in 10.0 miles SSW 12.7 mph - N/A   Mostly Cloudy
8:51 PM 42.8°F 39.2°F 87% 30.07 in 10.0 miles SSW 11.5 mph 17.3 mph N/A   Overcast
8:53 PM 43.0°F 39.0°F 86% 30.08 in 10.0 miles SSW 10.4 mph 17.3 mph N/A   Overcast
8:56 PM 42.8°F 39.2°F 87% 30.07 in 10.0 miles SSW 9.2 mph 17.3 mph N/A   Overcast
9:09 PM 42.8°F 39.2°F 87% 30.08 in 10.0 miles SSW 9.2 mph - N/A   Overcast
9:18 PM 42.8°F 37.4°F 81% 30.08 in 10.0 miles SSW 9.2 mph - N/A   Overcast
9:26 PM 42.8°F 39.2°F 87% 30.08 in 10.0 miles SSW 9.2 mph - N/A   Overcast
9:38 PM 42.8°F 39.2°F 87% 30.09 in 10.0 miles SSW 9.2 mph - N/A   Overcast
9:50 PM 42.8°F 39.2°F 87% 30.09 in 10.0 miles SSW 11.5 mph - N/A   Overcast
9:53 PM 43.0°F 39.0°F 86% 30.10 in 10.0 miles SSW 11.5 mph - N/A   Overcast
10:19 PM 42.8°F 39.2°F 87% 30.08 in 10.0 miles South 11.5 mph - N/A   Overcast
10:22 PM 42.8°F 39.2°F 87% 30.08 in 10.0 miles South 11.5 mph - N/A   Overcast
10:49 PM 42.8°F 37.4°F 81% 30.08 in 10.0 miles South 15.0 mph 20.7 mph N/A   Overcast
11:53 PM 42.1°F 37.9°F 85% 30.08 in 10.0 miles SSW 12.7 mph - N/A   Overcast
Moon Phase
Feb. 21 Feb. 25 Mar. 04 Mar. 11 Mar. 19
Sunrise:07:04 AM (PST) Moon Rise:01:53 PM (PST)2/21
Sunset:05:44 PM (PST) Moon Set:04:23 AM (PST)2/21

Copyright © 2014 The Weather Underground, Inc.